Notices

What's New in latest Release from April 7th, 2021:

- Updated Glossary, including Speed of Maximum Gust, and Total Hourly Precipitation

- Updated national and regional climate services offices contacts and prices information

- Addition of station inventory lists for 1981-2010, 1971-2000, and 1961-1990 Normals.

If you haven't already, please take our survey and provide feedback about our website: https://eccc.sondage-survey.ca/f/LanguageSelection.aspx?s=442ca660-fcf1-47c0-95a9-59707d6fd709

Hourly Data Report for December 18, 2019

EUREKA CLIMATE
NUNAVUT
Current Station Operator: ECCC - MSC

79°59'21.000" N
85°56'02.000" W
10.00 m
2401199
71613
NEK

Download Data

Hourly Data (December 2019)
Hourly Data Report for December 18, 2019
TIME
LST
Temp Definition
°C
Dew Point Definition
°C
Rel Hum Definition
%
Precip. Amount Definition
mm

Wind Dir Definition
10's deg

Wind Spd Definition
km/h
Visibility Definition
km
Stn Press Definition
kPa
Hmdx Definition


Wind Chill Definition


Weather Definition


00:00 -33.2 -36.4 73 0.0 11 9   102.45   -42 LegendNANA
01:00 -33.2 -36.4 73 0.0 10 7   102.47   -41 LegendNANA
02:00 -32.1 -35.2 74 0.0 10 6   102.47   -39 LegendNANA
03:00 -31.7 -34.8 74 0.0 6 3   102.50   -35 LegendNANA
04:00 -31.3 -34.3 75 0.0   0   102.54     LegendNANA
05:00 -30.9 -33.9 75 0.0 10 3   102.54   -34 LegendNANA
06:00 -31.1 -34.1 75 0.0 11 6   102.55   -38 LegendNANA
07:00 -31.1 -34.1 75 0.0 12 3   102.54   -35 LegendNANA
08:00 -31.0 -34.0 75 0.0 11 2   102.53   -33 LegendNANA
09:00 -31.6 -34.6 74 0.0 10 5   102.56   -37 LegendNANA
10:00 -31.7 -34.8 74 0.0 11 5   102.57   -38 LegendNANA
11:00 -31.7 -34.7 74 0.0 0 1   102.57   -33 LegendNANA
12:00 -31.8 -34.8 74 0.0 9 3   102.56   -35 LegendNANA
13:00 -32.6 -35.7 73 0.0 9 7   102.56   -40 LegendNANA
14:00 -33.0 -36.2 73 0.0 5 1   102.55   -34 LegendNANA
15:00 -33.0 -36.2 73 0.0 3 3   102.53   -37 LegendNANA
16:00 -32.9 -36.1 73 0.0 0 1   102.50   -34 LegendNANA
17:00 -32.8 -36.0 73 0.0 11 6   102.46   -40 LegendNANA
18:00 -33.0 -36.2 73 0.0 11 6   102.42   -40 LegendNANA
19:00 -33.2 -36.4 73 0.0 12 3   102.34   -37 LegendNANA
20:00 -33.5 -36.8 73 0.0 7 3   102.29   -37 LegendNANA
21:00 -33.6 -36.8 72 0.0 4 4   102.23   -38 LegendNANA
22:00 -33.0 -36.2 73 0.0 12 5   102.14   -39 LegendNANA
23:00 -33.6 -36.9 73 0.0   0   102.12     LegendNANA

Notes on Data Quality.

Legend

  • E = Estimated
  • M = Missing
  • NA = Not Available*
  • [empty] = Indicates an unobserved value
Date modified: